EW0706 Weather Reports


time (UTC)temp
C
wind
direction
speed
KPH
gust
KPH
rain 1hr
cm
rain 24hr
cm
rain mn
cm
humidity
%
barometer
mb
20260505183714 23 0.0 0.0 0.00 0.00 0.00 35 1009.2
20260505182713 23 0.0 0.0 0.00 0.00 0.00 35 1009.6
20260505181712 23 0.0 0.0 0.00 0.00 0.00 35 1009.6
20260505180711 23 0.0 0.0 0.00 0.00 0.00 37 1009.6
20260505175710 22 0.0 0.0 0.00 0.00 0.00 38 1009.6
20260505174710 22 0.0 0.0 0.00 0.00 0.00 38 1009.6
20260505173638 22 0.0 0.0 0.00 0.00 0.00 40 1009.5
20260505172606 22 0.0 0.0 0.00 0.00 0.00 40 1009.5
20260505171604 21 0.0 0.0 0.00 0.00 0.00 43 1009.5
20260505170602 21 0.0 0.0 0.00 0.00 0.00 43 1009.5
20260505165602 21 0.0 0.0 0.00 0.00 0.00 44 1009.5
20260505164601 21 0.0 0.0 0.00 0.00 0.00 43 1009.8
20260505163600 21 0.0 0.0 0.00 0.00 0.00 44 1009.8
20260505162559 20 0.0 0.0 0.00 0.00 0.00 46 1009.5
20260505161558 20 0.0 0.0 0.00 0.00 0.00 46 1009.8
20260505160455 20 0.0 0.0 0.00 0.00 0.00 47 1009.8
20260505153348 21 0.0 0.0 0.00 0.00 0.00 44 1009.9
20260505152347 21 0.0 0.0 0.00 0.00 0.00 43 1009.6
20260505151346 21 0.0 0.0 0.00 0.00 0.00 44 1009.6
20260505150344 21 0.0 0.0 0.00 0.00 0.00 45 1009.5
20260505140338 19 0.0 0.0 0.00 0.00 0.00 49 1009.4
20260505130128 18 0.0 0.0 0.00 0.00 0.00 49 1009.1
20260505124125 18 0.0 0.0 0.00 0.00 0.00 49 1008.8
20260505123123 18 0.0 0.0 0.00 0.00 0.00 49 1008.8
20260505122122 18 0.0 0.0 0.00 0.00 0.00 49 1008.5
20260505121121 18 0.0 0.0 0.00 0.00 0.00 49 1008.5
20260505120121 18 0.0 0.0 0.00 0.00 0.00 48 1008.5
20260505115120 18 0.0 0.0 0.00 0.00 0.00 48 1008.5
20260505114048 18 0.0 0.0 0.00 0.00 0.00 47 1008.5
20260505113047 19 0.0 0.0 0.00 0.00 0.00 47 1008.5
20260505112046 19 0.0 0.0 0.00 0.00 0.00 46 1008.5
20260505111045 19 0.0 0.0 0.00 0.00 0.00 45 1008.5
20260505101907 20 0.0 0.0 0.00 0.00 0.00 44 1009.2
20260505100905 20 0.0 0.0 0.00 0.00 0.00 44 1008.9
20260505095904 20 0.0 0.0 0.00 0.00 0.00 44 1009.2
20260505094904 20 0.0 0.0 0.00 0.00 0.00 43 1009.2
20260505093902 20 0.0 0.0 0.00 0.00 0.00 42 1009.2
20260505092901 20 0.0 0.0 0.00 0.00 0.00 41 1009.2
20260505091900 20 0.0 0.0 0.00 0.00 0.00 40 1009.2
20260505090859 20 0.0 0.0 0.00 0.00 0.00 40 1009.2
20260505085858 20 0.0 0.0 0.00 0.00 0.00 40 1009.2
20260505084857 21 0.0 0.0 0.00 0.00 0.00 40 1009.5
20260505083856 21 0.0 0.0 0.00 0.00 0.00 39 1009.6
20260505082855 21 0.0 0.0 0.00 0.00 0.00 38 1009.9
20260505081853 21 0.0 0.0 0.00 0.00 0.00 38 1009.9
20260505080852 21 0.0 0.0 0.00 0.00 0.00 37 1009.9
20260505075850 21 0.0 0.0 0.00 0.00 0.00 37 1009.9
20260505074818 21 0.0 0.0 0.00 0.00 0.00 36 1009.9
20260505073817 21 0.0 0.0 0.00 0.00 0.00 36 1009.9
20260505072817 21 0.0 0.0 0.00 0.00 0.00 36 1009.6
20260505071744 21 0.0 0.0 0.00 0.00 0.00 35 1009.9
20260505070743 21 0.0 0.0 0.00 0.00 0.00 35 1009.9
20260505065742 22 0.0 0.0 0.00 0.00 0.00 34 1010.3
20260505064741 22 0.0 0.0 0.00 0.00 0.00 33 1009.9
20260505063740 22 0.0 0.0 0.00 0.00 0.00 32 1009.9
20260505062738 22 0.0 0.0 0.00 0.00 0.00 32 1009.9
20260505061737 22 0.0 0.0 0.00 0.00 0.00 31 1009.6
20260505060736 22 0.0 0.0 0.00 0.00 0.00 32 1009.6
20260505055735 22 0.0 0.0 0.00 0.00 0.00 35 1009.3
20260505054734 22 0.0 0.0 0.00 0.00 0.00 35 1009.3
20260505053733 23 0.0 0.0 0.00 0.00 0.00 34 1009.3
20260505052732 23 0.0 0.0 0.00 0.00 0.00 35 1009.6
20260505051626 23 0.0 0.0 0.00 0.00 0.00 35 1009.6
20260505050554 23 0.0 0.0 0.00 0.00 0.00 35 1010.0
20260505041518 23 0.0 0.0 0.00 0.00 0.00 37 1009.7
20260505040446 23 0.0 0.0 0.00 0.00 0.00 37 1009.7
20260505035445 23 0.0 0.0 0.00 0.00 0.00 36 1009.7
20260505034443 23 0.0 0.0 0.00 0.00 0.00 36 1009.4
20260505033442 23 0.0 0.0 0.00 0.00 0.00 36 1009.4
20260505032441 23 0.0 0.0 0.00 0.00 0.00 36 1009.4
20260505031440 23 0.0 0.0 0.00 0.00 0.00 36 1009.0
20260505030438 23 0.0 0.0 0.00 0.00 0.00 36 1008.7
20260505025438 23 0.0 0.0 0.00 0.00 0.00 36 1008.7
20260505024437 24 0.0 0.0 0.00 0.00 0.00 35 1008.7
20260505023436 24 0.0 0.0 0.00 0.00 0.00 35 1009.0
20260505022435 24 0.0 0.0 0.00 0.00 0.00 34 1008.7
20260505021434 24 0.0 0.0 0.00 0.00 0.00 34 1008.7
20260505020433 24 0.0 0.0 0.00 0.00 0.00 34 1008.7
20260505015432 25 0.0 0.0 0.00 0.00 0.00 33 1008.7
20260505014431 25 0.0 0.0 0.00 0.00 0.00 32 1008.7
20260505013430 25 0.0 0.0 0.00 0.00 0.00 32 1008.4
20260505012357 25 0.0 0.0 0.00 0.00 0.00 32 1008.7
20260505011355 25 0.0 0.0 0.00 0.00 0.00 32 1008.7
20260505010323 25 0.0 0.0 0.00 0.00 0.00 32 1008.7
20260505005251 26 0.0 0.0 0.00 0.00 0.00 32 1008.7
20260505004249 26 0.0 0.0 0.00 0.00 0.00 31 1008.7
20260505003216 26 0.0 0.0 0.00 0.00 0.00 31 1008.8
20260505002215 26 0.0 0.0 0.00 0.00 0.00 32 1008.8
20260505001142 26 0.0 0.0 0.00 0.00 0.00 32 1008.8
20260505000141 26 0.0 0.0 0.00 0.00 0.00 32 1008.8
20260504235140 26 0.0 0.0 0.00 0.00 0.00 32 1009.1
20260504234140 26 0.0 0.0 0.00 0.00 0.00 32 1009.1
20260504233005 25 0.0 0.0 0.00 0.00 0.00 32 1009.1
20260504232004 25 0.0 0.0 0.00 0.00 0.00 32 1009.1
20260504231003 26 0.0 0.0 0.00 0.00 0.00 32 1009.1
20260504225120 25 0.0 0.0 0.00 0.00 0.00 33 1009.1
20260504224017 25 0.0 0.0 0.00 0.00 0.00 33 1009.1
20260504223016 25 0.0 0.0 0.00 0.00 0.00 33 1009.5
20260504221944 25 0.0 0.0 0.00 0.00 0.00 33 1009.9
20260504220841 25 0.0 0.0 0.00 0.00 0.00 34 1009.9
20260504215807 25 0.0 0.0 0.00 0.00 0.00 34 1009.9
20260504214806 25 0.0 0.0 0.00 0.00 0.00 35 1010.2
20260504211359 25 0.0 0.0 0.00 0.00 0.00 34 1010.9
20260504210327 25 0.0 0.0 0.00 0.00 0.00 34 1010.9
20260504205327 25 0.0 0.0 0.00 0.00 0.00 34 1010.5
20260504204223 25 0.0 0.0 0.00 0.00 0.00 33 1010.9
20260504203120 25 0.0 0.0 0.00 0.00 0.00 34 1010.9
20260504202118 25 0.0 0.0 0.00 0.00 0.00 34 1010.9
20260504201047 25 0.0 0.0 0.00 0.00 0.00 34 1010.6
20260504200046 25 0.0 0.0 0.00 0.00 0.00 34 1010.9
20260504195014 25 0.0 0.0 0.00 0.00 0.00 35 1010.6
20260504194013 24 0.0 0.0 0.00 0.00 0.00 35 1010.6
20260504193011 25 0.0 0.0 0.00 0.00 0.00 35 1010.9
20260504192010 25 0.0 0.0 0.00 0.00 0.00 36 1011.3
20260504191009 24 0.0 0.0 0.00 0.00 0.00 36 1011.3
20260504190008 24 0.0 0.0 0.00 0.00 0.00 36 1010.9
20260504185007 24 0.0 0.0 0.00 0.00 0.00 37 1010.9